FW1785 Weather Reports


Display with metric or nautical units.
time (UTC)temp
F
wind
direction
speed
MPH
gust
MPH
rain 1hr
in
rain 24hr
in
rain mn
in
humidity
%
barometer
mb
20260507143039 66 289 3.0 8.0 0.00 0.00 0.00 74 1042.3
20260507141534 66 319 3.0 9.0 0.00 0.00 0.00 73 1042.3
20260507140035 66 330 3.0 10.0 0.00 0.00 0.00 73 1042.3
20260507134531 66 342 3.0 10.0 0.00 0.00 0.00 73 1042.4
20260507133031 66 332 3.0 12.0 0.00 0.00 0.00 73 1042.4
20260507131529 67 309 3.0 13.0 0.00 0.00 0.00 71 1042.4
20260507130037 67 355 3.0 6.0 0.00 0.00 0.00 71 1042.6
20260507124536 67 327 4.0 13.0 0.00 0.00 0.00 71 1042.5
20260507123027 67 37 3.0 17.0 0.00 0.00 0.00 71 1042.6
20260507121526 67 28 3.0 13.0 0.00 0.00 0.00 69 1042.8
20260507120025 66 340 4.0 13.0 0.00 0.00 0.00 69 1042.9
20260507114537 67 333 5.0 11.0 0.00 0.00 0.00 70 1043.1
20260507113043 67 343 5.0 15.0 0.00 0.00 0.00 69 1043.3
20260507111530 67 327 5.0 11.0 0.00 0.00 0.00 65 1043.4
20260507110023 67 317 5.0 13.0 0.00 0.00 0.00 63 1043.4
20260507104522 68 9 3.0 13.0 0.00 0.00 0.00 60 1043.4
20260507103024 68 23 4.0 13.0 0.00 0.00 0.00 61 1043.2
20260507101520 68 299 5.0 12.0 0.00 0.00 0.00 57 1043.2
20260507100019 68 319 2.0 13.0 0.00 0.00 0.00 55 1043.2
20260507094518 69 345 3.0 10.0 0.00 0.00 0.00 52 1043.3
20260507093017 69 26 2.0 10.0 0.00 0.00 0.00 54 1043.4
20260507091514 69 67 3.0 9.0 0.00 0.00 0.00 52 1043.8
20260507090013 68 338 3.0 9.0 0.00 0.00 0.00 49 1043.8
20260507084510 68 345 2.0 10.0 0.00 0.00 0.00 50 1043.9
20260507083008 68 321 3.0 11.0 0.00 0.00 0.00 47 1043.9
20260507081507 68 19 5.0 11.0 0.00 0.00 0.00 46 1043.9
20260507074600 68 38 4.0 11.0 0.00 0.00 0.00 45 1043.7
20260507073054 68 355 2.0 9.0 0.00 0.00 0.00 44 1043.7
20260507071547 68 24 4.0 9.0 0.00 0.00 0.00 46 1043.5
20260507070046 67 22 2.0 10.0 0.00 0.00 0.00 45 1043.7
20260507064540 67 26 3.0 8.0 0.00 0.00 0.00 47 1043.6
20260507063040 66 19 1.0 8.0 0.00 0.00 0.00 46 1043.5
20260507061530 66 5 1.0 5.0 0.00 0.00 0.00 47 1043.4
20260507060030 66 33 2.0 4.0 0.00 0.00 0.00 55 1043.4
20260507054522 65 134 0.0 2.0 0.00 0.00 0.00 59 1043.4
20260507053018 63 67 0.0 0.0 0.00 0.00 0.00 65 1043.4
20260507051513 62 67 1.0 2.0 0.00 0.00 0.00 68 1043.3
20260507050013 59 69 0.0 1.0 0.00 0.00 0.00 74 1043.1
20260507044505 56 69 0.0 2.0 0.00 0.00 0.00 79 1043.0
20260507043127 55 157 0.0 2.0 0.00 0.00 0.00 81 1043.2
20260507041559 52 197 0.0 0.0 0.00 0.00 0.00 82 1043.2
20260507040153 50 197 0.0 1.0 0.00 0.00 0.00 81 1043.0
20260507034546 49 197 0.0 4.0 0.00 0.00 0.00 81 1042.9
20260507033042 47 196 3.0 5.0 0.00 0.00 0.00 82 1042.8
20260507031544 46 188 3.0 5.0 0.00 0.00 0.00 83 1042.7
20260507030036 46 186 3.0 5.0 0.00 0.00 0.00 84 1042.7
20260507024535 46 194 3.0 5.0 0.00 0.00 0.00 84 1042.5
20260507023035 46 185 1.0 3.0 0.00 0.00 0.00 83 1042.4
20260507021537 47 189 2.0 5.0 0.00 0.00 0.00 82 1042.4
20260507020046 46 186 2.0 4.0 0.00 0.00 0.00 84 1042.4
20260507014534 46 180 1.0 5.0 0.00 0.00 0.00 84 1042.3
20260507013031 47 160 0.0 6.0 0.00 0.00 0.00 84 1042.2
20260507011541 47 192 2.0 4.0 0.00 0.00 0.00 84 1042.2
20260507010033 47 200 3.0 4.0 0.00 0.00 0.00 83 1042.1
20260507004528 48 190 2.0 5.0 0.00 0.00 0.00 84 1042.2
20260507003026 47 194 3.0 5.0 0.00 0.00 0.00 87 1042.1
20260507001550 47 188 2.0 4.0 0.00 0.00 0.00 87 1042.2
20260507000024 48 199 2.0 5.0 0.00 0.00 0.00 88 1042.2
20260506234520 48 190 2.0 4.0 0.00 0.00 0.00 88 1042.3
20260506233019 48 190 3.0 4.0 0.00 0.00 0.00 88 1042.3
20260506231518 48 188 2.0 4.0 0.00 0.00 0.00 88 1042.4
20260506230017 48 194 1.0 5.0 0.00 0.00 0.00 88 1042.4
20260506224516 48 192 2.0 4.0 0.00 0.00 0.00 89 1042.4
20260506223013 48 186 0.0 3.0 0.00 0.00 0.00 88 1042.6
20260506221512 48 182 1.0 4.0 0.00 0.00 0.00 88 1042.5
20260506220009 48 180 1.0 3.0 0.00 0.00 0.00 88 1042.7
20260506214507 48 180 1.0 3.0 0.00 0.00 0.00 88 1042.9
20260506213004 49 184 1.0 5.0 0.00 0.00 0.00 88 1042.9
20260506211559 49 183 2.0 4.0 0.00 0.00 0.00 88 1042.7
20260506210155 49 182 2.0 4.0 0.00 0.00 0.00 88 1042.8
20260506204557 49 181 1.0 3.0 0.00 0.00 0.00 87 1042.8
20260506203116 49 181 0.0 3.0 0.00 0.00 0.00 86 1042.8
20260506201552 49 180 0.0 2.0 0.00 0.00 0.00 84 1042.8
20260506200056 50 185 1.0 4.0 0.00 0.00 0.00 84 1042.8
20260506194553 50 191 2.0 5.0 0.00 0.00 0.00 83 1042.8
20260506193054 50 192 2.0 4.0 0.00 0.00 0.00 83 1042.7
20260506191549 50 178 3.0 5.0 0.00 0.00 0.00 83 1042.6
20260506190052 51 195 3.0 6.0 0.00 0.00 0.00 82 1042.5
20260506184550 51 167 0.0 3.0 0.00 0.00 0.00 82 1042.4
20260506183046 52 173 0.0 5.0 0.00 0.00 0.00 83 1042.1
20260506181552 52 187 2.0 4.0 0.00 0.00 0.00 84 1042.0
20260506180043 54 191 3.0 4.0 0.00 0.00 0.00 82 1041.8
20260506174541 56 194 2.0 5.0 0.00 0.00 0.00 80 1041.7
20260506173045 57 149 0.0 2.0 0.00 0.00 0.00 79 1041.6
20260506171539 58 149 0.0 3.0 0.00 0.00 0.00 77 1041.4
20260506170044 58 115 0.0 3.0 0.00 0.00 0.00 77 1041.3
20260506164551 59 241 1.0 7.0 0.00 0.00 0.00 76 1041.1
20260506163041 59 260 4.0 7.0 0.00 0.00 0.00 75 1040.9
20260506161535 60 252 3.0 7.0 0.00 0.00 0.00 74 1040.9
20260506160036 61 267 3.0 7.0 0.00 0.00 0.00 70 1040.9
20260506154534 63 260 4.0 7.0 0.00 0.00 0.00 68 1040.7
20260506153033 63 265 3.0 6.0 0.00 0.00 0.00 67 1040.6
20260506151536 65 243 2.0 4.0 0.00 0.00 0.00 67 1040.7
20260506150032 66 239 3.0 4.0 0.00 0.00 0.00 65 1040.8
20260506144531 66 261 1.0 4.0 0.00 0.00 0.00 65 1040.7